Volver al catálogo

STARLINK-3867

ActivoComunicacionesVLEO
NORAD 52587·PAYLOAD·🇺🇸 United States

Lanzado May 13, 2022 desde Vandenberg Space Force Base

Loading…

Próximos Pases (próximas 24 horas)

TLE

ActualizadoSource: CelesTrak SupGP

Época: Sep 14, 2026, 20:46 UTC

1 52587C 22051BD  26257.86576389 -.00033151  00000+0 -10662-2 0  2579
2 52587  53.1582 336.0866 0001170  81.2019 334.3658 15.31712797    11

Sigue STARLINK-3867 en tiempo real con AllMySat

Download on the App Store